Location: Burleson Alternative School
(32.5290°N, 97.3406°W)
Time: 09:53:35
(UTC+00:00)

Vanguard 2 Rocket - Pass Details

Date: 12 November 2025
Orbit: 553 x 3287 km, 32.9° (Epoch: 07 December)

Event Time Altitude Azimuth Distance (km) Brightness Sun altitude
Exits shadow 09:56:15 13° 207° (SSW) 5,449 10.6 -38.1°
Drops below altitude 10° 10:00:59 10° 192° (SSW) 5,943 10.9 -37.1°
Sets 10:10:24 0° 170° (S) 7,229 11.6 -35.1°
